contact:dominique.lefevre@mio.osupytheas.fr, maurice.libes@osupytheas.fr, didier.mallarino@osupytheas.fr
Project:EMSO http://www.emso-fr.org/EMSO-France
Depth: 2436.0 m
Title:EMSO Ligure Ouest : Data MII capteur CSTAR
DateTime,Latitude,Longitude,Instrument_Serial,Reference_Counts,Signal_Counts,Corrected_Signal_raw_counts,Calculated_Beam_c_inverse_meters,Internal_thermistor_counts
DateTime,Latitude,Longitude,Instrument_Serial,Reference_Counts,Signal_Counts,Corrected_Signal_raw_counts,Calculated_Beam_c_inverse_meters,Internal_thermistor_counts
2020-10-16T00:01:38,42.805,6.029,CST-1368DR,5882,8229,15077,0.141,551
2020-10-16T00:04:39,42.805,6.029,CST-1368DR,5882,8229,15077,0.141,551
2020-10-16T00:07:41,42.805,6.029,CST-1368DR,5882,8229,15077,0.141,551
2020-10-16T00:10:42,42.805,6.029,CST-1368DR,5882,8229,15077,0.141,551
2020-10-16T00:13:44,42.805,6.029,CST-1368DR,5881,8229,15079,0.140,551
2020-10-16T00:16:45,42.805,6.029,CST-1368DR,5881,8227,15077,0.141,551
2020-10-16T00:19:47,42.805,6.029,CST-1368DR,5882,8227,15074,0.141,551
2020-10-16T00:22:49,42.805,6.029,CST-1368DR,5881,8229,15080,0.140,551
2020-10-16T00:25:50,42.805,6.029,CST-1368DR,5881,8229,15080,0.140,551
2020-10-16T00:28:52,42.805,6.029,CST-1368DR,5881,8229,15080,0.140,551
2020-10-16T00:31:53,42.805,6.029,CST-1368DR,5881,8228,15079,0.140,551
2020-10-16T00:34:55,42.805,6.029,CST-1368DR,5881,8229,15079,0.140,551
2020-10-16T00:37:56,42.805,6.029,CST-1368DR,5881,8227,15077,0.141,551
2020-10-16T00:40:58,42.805,6.029,CST-1368DR,5881,8228,15078,0.140,551
2020-10-16T00:44:00,42.805,6.029,CST-1368DR,5881,8229,15080,0.140,551
2020-10-16T00:47:01,42.805,6.029,CST-1368DR,5881,8228,15078,0.140,551
2020-10-16T00:50:03,42.805,6.029,CST-1368DR,5881,8229,15079,0.140,551
2020-10-16T00:53:04,42.805,6.029,CST-1368DR,5881,8228,15078,0.140,551
2020-10-16T00:56:06,42.805,6.029,CST-1368DR,5881,8229,15080,0.140,551
2020-10-16T00:59:08,42.805,6.029,CST-1368DR,5881,8230,15081,0.139,551
2020-10-16T01:02:09,42.805,6.029,CST-1368DR,5881,8228,15078,0.140,551
2020-10-16T01:05:11,42.805,6.029,CST-1368DR,5881,8229,15079,0.140,551
2020-10-16T01:08:12,42.805,6.029,CST-1368DR,5881,8227,15077,0.141,551
2020-10-16T01:11:14,42.805,6.029,CST-1368DR,5881,8228,15078,0.140,551
2020-10-16T01:14:15,42.805,6.029,CST-1368DR,5881,8229,15080,0.140,551
2020-10-16T01:17:17,42.805,6.029,CST-1368DR,5881,8229,15080,0.140,551
2020-10-16T01:20:19,42.805,6.029,CST-1368DR,5881,8228,15079,0.140,551
2020-10-16T01:23:20,42.805,6.029,CST-1368DR,5881,8229,15079,0.140,551
2020-10-16T01:26:22,42.805,6.029,CST-1368DR,5881,8229,15080,0.140,551
2020-10-16T01:29:23,42.805,6.029,CST-1368DR,5881,8229,15080,0.140,551
2020-10-16T01:32:25,42.805,6.029,CST-1368DR,5881,8228,15078,0.140,551
2020-10-16T01:35:27,42.805,6.029,CST-1368DR,5881,8229,15080,0.140,551
2020-10-16T01:38:28,42.805,6.029,CST-1368DR,5881,8227,15076,0.141,551
2020-10-16T01:41:30,42.805,6.029,CST-1368DR,5881,8229,15080,0.140,551
2020-10-16T01:44:31,42.805,6.029,CST-1368DR,5881,8229,15080,0.140,551
2020-10-16T01:47:33,42.805,6.029,CST-1368DR,5881,8228,15078,0.140,551
2020-10-16T01:50:34,42.805,6.029,CST-1368DR,5881,8229,15080,0.140,551
2020-10-16T01:53:36,42.805,6.029,CST-1368DR,5881,8229,15080,0.140,551
2020-10-16T01:56:38,42.805,6.029,CST-1368DR,5881,8228,15078,0.140,551
2020-10-16T01:59:39,42.805,6.029,CST-1368DR,5881,8228,15078,0.140,551
2020-10-16T02:02:41,42.805,6.029,CST-1368DR,5881,8229,15080,0.140,551
2020-10-16T02:05:42,42.805,6.029,CST-1368DR,5881,8228,15078,0.140,551
2020-10-16T02:08:44,42.805,6.029,CST-1368DR,5881,8229,15080,0.140,551
2020-10-16T02:11:45,42.805,6.029,CST-1368DR,5881,8227,15077,0.141,551
2020-10-16T02:14:47,42.805,6.029,CST-1368DR,5881,8229,15079,0.140,551
2020-10-16T02:17:49,42.805,6.029,CST-1368DR,5881,8227,15077,0.141,551
2020-10-16T02:20:50,42.805,6.029,CST-1368DR,5881,8229,15079,0.140,551
2020-10-16T02:23:52,42.805,6.029,CST-1368DR,5881,8229,15080,0.140,551
2020-10-16T02:26:53,42.805,6.029,CST-1368DR,5881,8229,15079,0.140,551
2020-10-16T02:29:55,42.805,6.029,CST-1368DR,5881,8228,15079,0.140,551
2020-10-16T02:32:57,42.805,6.029,CST-1368DR,5881,8228,15079,0.140,551
2020-10-16T02:35:58,42.805,6.029,CST-1368DR,5881,8229,15079,0.140,551
2020-10-16T02:39:00,42.805,6.029,CST-1368DR,5881,8228,15078,0.140,551
2020-10-16T02:42:01,42.805,6.029,CST-1368DR,5881,8228,15078,0.140,551
2020-10-16T02:45:03,42.805,6.029,CST-1368DR,5881,8229,15080,0.140,551
2020-10-16T02:48:04,42.805,6.029,CST-1368DR,5881,8228,15079,0.140,551
2020-10-16T02:51:06,42.805,6.029,CST-1368DR,5881,8227,15075,0.141,551
2020-10-16T02:54:08,42.805,6.029,CST-1368DR,5881,8227,15076,0.141,551
2020-10-16T02:57:09,42.805,6.029,CST-1368DR,5881,8228,15078,0.140,551
2020-10-16T03:00:11,42.805,6.029,CST-1368DR,5881,8226,15075,0.141,550
2020-10-16T03:03:12,42.805,6.029,CST-1368DR,5881,8228,15078,0.140,551
2020-10-16T03:06:14,42.805,6.029,CST-1368DR,5881,8229,15079,0.140,551
2020-10-16T03:09:16,42.805,6.029,CST-1368DR,5881,8227,15075,0.141,551
2020-10-16T03:12:17,42.805,6.029,CST-1368DR,5881,8226,15075,0.141,551
2020-10-16T03:15:19,42.805,6.029,CST-1368DR,5881,8228,15078,0.140,550
2020-10-16T03:18:20,42.805,6.029,CST-1368DR,5881,8228,15079,0.140,551
2020-10-16T03:21:22,42.805,6.029,CST-1368DR,5881,8228,15078,0.140,551
2020-10-16T03:24:23,42.805,6.029,CST-1368DR,5881,8227,15076,0.141,551
2020-10-16T03:27:25,42.805,6.029,CST-1368DR,5881,8227,15077,0.141,551
2020-10-16T03:30:27,42.805,6.029,CST-1368DR,5881,8227,15077,0.141,551
2020-10-16T03:33:28,42.805,6.029,CST-1368DR,5881,8227,15077,0.141,551
2020-10-16T03:36:30,42.805,6.029,CST-1368DR,5881,8228,15078,0.140,551
2020-10-16T03:39:31,42.805,6.029,CST-1368DR,5881,8222,15067,0.143,551
2020-10-16T03:42:33,42.805,6.029,CST-1368DR,5881,8229,15080,0.140,551
2020-10-16T03:45:34,42.805,6.029,CST-1368DR,5881,8228,15078,0.140,551
2020-10-16T03:48:36,42.805,6.029,CST-1368DR,5881,8221,15064,0.144,551
2020-10-16T03:51:38,42.805,6.029,CST-1368DR,5881,8227,15075,0.141,551
2020-10-16T03:54:39,42.805,6.029,CST-1368DR,5881,8228,15078,0.140,551
2020-10-16T03:57:41,42.805,6.029,CST-1368DR,5881,8228,15078,0.140,551
2020-10-16T04:00:42,42.805,6.029,CST-1368DR,5881,8228,15078,0.140,551
2020-10-16T04:03:44,42.805,6.029,CST-1368DR,5881,8228,15078,0.140,551
2020-10-16T04:06:46,42.805,6.029,CST-1368DR,5881,8227,15076,0.141,551
2020-10-16T04:09:47,42.805,6.029,CST-1368DR,5881,8228,15078,0.140,551
2020-10-16T04:12:49,42.805,6.029,CST-1368DR,5881,8227,15077,0.141,551
2020-10-16T04:15:50,42.805,6.029,CST-1368DR,5881,8227,15076,0.141,551
2020-10-16T04:18:52,42.805,6.029,CST-1368DR,5881,8227,15076,0.141,551
2020-10-16T04:21:53,42.805,6.029,CST-1368DR,5881,8228,15078,0.140,551
2020-10-16T04:24:55,42.805,6.029,CST-1368DR,5881,8228,15078,0.140,551
2020-10-16T04:27:57,42.805,6.029,CST-1368DR,5881,8228,15078,0.140,551
2020-10-16T04:30:58,42.805,6.029,CST-1368DR,5881,8227,15075,0.141,551
2020-10-16T04:34:00,42.805,6.029,CST-1368DR,5881,8227,15077,0.141,551
2020-10-16T04:37:01,42.805,6.029,CST-1368DR,5881,8228,15078,0.140,551
2020-10-16T04:40:03,42.805,6.029,CST-1368DR,5881,8226,15075,0.141,551
2020-10-16T04:43:04,42.805,6.029,CST-1368DR,5881,8228,15078,0.140,551
2020-10-16T04:46:06,42.805,6.029,CST-1368DR,5881,8228,15078,0.140,551
2020-10-16T04:49:08,42.805,6.029,CST-1368DR,5881,8226,15075,0.141,551
2020-10-16T04:52:09,42.805,6.029,CST-1368DR,5881,8227,15076,0.141,551
2020-10-16T04:55:11,42.805,6.029,CST-1368DR,5881,8228,15079,0.140,551
2020-10-16T04:58:12,42.805,6.029,CST-1368DR,5881,8226,15074,0.141,551
2020-10-16T05:01:14,42.805,6.029,CST-1368DR,5881,8227,15077,0.141,551
2020-10-16T05:04:16,42.805,6.029,CST-1368DR,5881,8227,15077,0.141,551
2020-10-16T05:07:17,42.805,6.029,CST-1368DR,5881,8224,15070,0.142,551
2020-10-16T05:10:19,42.805,6.029,CST-1368DR,5881,8228,15078,0.140,551
2020-10-16T05:13:20,42.805,6.029,CST-1368DR,5881,8227,15077,0.141,551
2020-10-16T05:16:22,42.805,6.029,CST-1368DR,5881,8228,15078,0.140,551
2020-10-16T05:19:23,42.805,6.029,CST-1368DR,5881,8228,15078,0.140,550
2020-10-16T05:22:25,42.805,6.029,CST-1368DR,5881,8227,15076,0.141,551
2020-10-16T05:25:27,42.805,6.029,CST-1368DR,5881,8228,15078,0.140,551
2020-10-16T05:28:28,42.805,6.029,CST-1368DR,5881,8227,15076,0.141,551
2020-10-16T05:31:30,42.805,6.029,CST-1368DR,5881,8227,15076,0.141,551
2020-10-16T05:34:31,42.805,6.029,CST-1368DR,5881,8228,15078,0.140,551
2020-10-16T05:37:33,42.805,6.029,CST-1368DR,5881,8227,15076,0.141,551
2020-10-16T05:40:35,42.805,6.029,CST-1368DR,5881,8227,15077,0.141,551
2020-10-16T05:43:36,42.805,6.029,CST-1368DR,5881,8227,15076,0.141,551
2020-10-16T05:46:38,42.805,6.029,CST-1368DR,5881,8227,15075,0.141,551
2020-10-16T05:49:39,42.805,6.029,CST-1368DR,5881,8227,15076,0.141,551
2020-10-16T05:52:41,42.805,6.029,CST-1368DR,5881,8227,15076,0.141,551
2020-10-16T05:55:42,42.805,6.029,CST-1368DR,5881,8225,15073,0.142,551
2020-10-16T05:58:44,42.805,6.029,CST-1368DR,5881,8227,15076,0.141,551
2020-10-16T06:01:46,42.805,6.029,CST-1368DR,5881,8226,15074,0.141,551
2020-10-16T06:04:47,42.805,6.029,CST-1368DR,5881,8227,15075,0.141,551
2020-10-16T06:07:49,42.805,6.029,CST-1368DR,5881,8227,15077,0.141,551
2020-10-16T06:10:50,42.805,6.029,CST-1368DR,5881,8228,15078,0.140,551
2020-10-16T06:13:52,42.805,6.029,CST-1368DR,5881,8227,15076,0.141,551
2020-10-16T06:16:53,42.805,6.029,CST-1368DR,5881,8227,15076,0.141,551
2020-10-16T06:19:55,42.805,6.029,CST-1368DR,5881,8226,15075,0.141,551
2020-10-16T06:22:57,42.805,6.029,CST-1368DR,5881,8227,15076,0.141,551
2020-10-16T06:25:58,42.805,6.029,CST-1368DR,5881,8227,15075,0.141,551
2020-10-16T06:29:00,42.805,6.029,CST-1368DR,5881,8227,15076,0.141,551
2020-10-16T06:32:01,42.805,6.029,CST-1368DR,5880,8227,15078,0.140,551
2020-10-16T06:35:03,42.805,6.029,CST-1368DR,5880,8226,15077,0.141,551
2020-10-16T06:38:04,42.805,6.029,CST-1368DR,5880,8225,15074,0.141,551
2020-10-16T06:41:06,42.805,6.029,CST-1368DR,5880,8225,15076,0.141,551
2020-10-16T06:44:08,42.805,6.029,CST-1368DR,5880,8224,15073,0.142,551
2020-10-16T06:47:09,42.805,6.029,CST-1368DR,5880,8227,15078,0.140,551
2020-10-16T06:50:11,42.805,6.029,CST-1368DR,5880,8226,15076,0.141,551
2020-10-16T06:53:12,42.805,6.029,CST-1368DR,5880,8226,15077,0.141,551
2020-10-16T06:56:14,42.805,6.029,CST-1368DR,5880,8225,15075,0.141,551
2020-10-16T06:59:16,42.805,6.029,CST-1368DR,5880,8225,15075,0.141,551
2020-10-16T07:02:17,42.805,6.029,CST-1368DR,5880,8222,15070,0.142,551
2020-10-16T07:05:19,42.805,6.029,CST-1368DR,5880,8226,15077,0.141,551
2020-10-16T07:08:20,42.805,6.029,CST-1368DR,5880,8226,15077,0.141,551
2020-10-16T07:11:22,42.805,6.029,CST-1368DR,5880,8227,15079,0.140,551
2020-10-16T07:14:23,42.805,6.029,CST-1368DR,5880,8226,15077,0.141,551
2020-10-16T07:17:25,42.805,6.029,CST-1368DR,5880,8227,15078,0.140,551
2020-10-16T07:20:27,42.805,6.029,CST-1368DR,5880,8225,15076,0.141,551
2020-10-16T07:23:28,42.805,6.029,CST-1368DR,5880,8226,15076,0.141,551
2020-10-16T07:26:30,42.805,6.029,CST-1368DR,5880,8225,15076,0.141,551
2020-10-16T07:29:31,42.805,6.029,CST-1368DR,5880,8225,15075,0.141,551
2020-10-16T07:32:33,42.805,6.029,CST-1368DR,5880,8223,15071,0.142,551
2020-10-16T07:35:35,42.805,6.029,CST-1368DR,5880,8226,15076,0.141,551
2020-10-16T07:38:36,42.805,6.029,CST-1368DR,5880,8226,15076,0.141,551
2020-10-16T07:41:38,42.805,6.029,CST-1368DR,5880,8226,15076,0.141,551
2020-10-16T07:44:39,42.805,6.029,CST-1368DR,5880,8222,15070,0.142,551
2020-10-16T07:47:41,42.805,6.029,CST-1368DR,5880,8225,15075,0.141,551
2020-10-16T07:50:42,42.805,6.029,CST-1368DR,5880,8226,15077,0.141,551
2020-10-16T07:53:44,42.805,6.029,CST-1368DR,5880,8226,15077,0.141,551
2020-10-16T07:56:46,42.805,6.029,CST-1368DR,5880,8225,15076,0.141,551
2020-10-16T07:59:47,42.805,6.029,CST-1368DR,5880,8223,15072,0.142,551
2020-10-16T08:02:49,42.805,6.029,CST-1368DR,5880,8226,15077,0.141,551
2020-10-16T08:05:50,42.805,6.029,CST-1368DR,5880,8225,15076,0.141,551
2020-10-16T08:08:52,42.805,6.029,CST-1368DR,5880,8225,15076,0.141,551
2020-10-16T08:11:53,42.805,6.029,CST-1368DR,5880,8225,15074,0.141,551
2020-10-16T08:14:55,42.805,6.029,CST-1368DR,5880,8225,15076,0.141,551
2020-10-16T08:17:57,42.805,6.029,CST-1368DR,5880,8225,15075,0.141,551
2020-10-16T08:20:58,42.805,6.029,CST-1368DR,5880,8225,15075,0.141,551
2020-10-16T08:24:00,42.805,6.029,CST-1368DR,5880,8225,15075,0.141,551
2020-10-16T08:27:01,42.805,6.029,CST-1368DR,5880,8225,15075,0.141,551
2020-10-16T08:30:03,42.805,6.029,CST-1368DR,5880,8226,15076,0.141,551
2020-10-16T08:33:05,42.805,6.029,CST-1368DR,5880,8227,15078,0.140,551
2020-10-16T08:36:06,42.805,6.029,CST-1368DR,5880,8225,15075,0.141,551
2020-10-16T08:39:08,42.805,6.029,CST-1368DR,5880,8226,15076,0.141,551
2020-10-16T08:42:09,42.805,6.029,CST-1368DR,5880,8225,15075,0.141,551
2020-10-16T08:45:11,42.805,6.029,CST-1368DR,5880,8225,15076,0.141,551
2020-10-16T08:48:12,42.805,6.029,CST-1368DR,5880,8226,15077,0.141,550
2020-10-16T08:51:14,42.805,6.029,CST-1368DR,5880,8225,15075,0.141,551
2020-10-16T08:54:16,42.805,6.029,CST-1368DR,5880,8219,15065,0.144,551
2020-10-16T08:57:17,42.805,6.029,CST-1368DR,5880,8224,15072,0.142,551
2020-10-16T09:00:19,42.805,6.029,CST-1368DR,5880,8225,15075,0.141,551
2020-10-16T09:03:20,42.805,6.029,CST-1368DR,5880,8225,15076,0.141,551
2020-10-16T09:06:22,42.805,6.029,CST-1368DR,5880,8225,15075,0.141,551
2020-10-16T09:09:24,42.805,6.029,CST-1368DR,5880,8225,15076,0.141,551
2020-10-16T09:12:25,42.805,6.029,CST-1368DR,5880,8225,15075,0.141,551
2020-10-16T09:15:27,42.805,6.029,CST-1368DR,5880,8225,15074,0.141,551
2020-10-16T09:18:28,42.805,6.029,CST-1368DR,5880,8225,15075,0.141,551
2020-10-16T09:21:30,42.805,6.029,CST-1368DR,5880,8224,15073,0.142,551
2020-10-16T09:24:31,42.805,6.029,CST-1368DR,5880,8223,15071,0.142,551
2020-10-16T09:27:33,42.805,6.029,CST-1368DR,5880,8225,15074,0.141,551
2020-10-16T09:30:35,42.805,6.029,CST-1368DR,5880,8225,15075,0.141,551
2020-10-16T09:33:36,42.805,6.029,CST-1368DR,5880,8225,15074,0.141,551
2020-10-16T09:36:38,42.805,6.029,CST-1368DR,5880,8223,15072,0.142,551
2020-10-16T09:39:39,42.805,6.029,CST-1368DR,5880,8224,15072,0.142,551
2020-10-16T09:42:41,42.805,6.029,CST-1368DR,5880,8225,15074,0.141,551
2020-10-16T09:45:43,42.805,6.029,CST-1368DR,5880,8226,15076,0.141,551
2020-10-16T09:48:44,42.805,6.029,CST-1368DR,5880,8224,15073,0.142,551
2020-10-16T09:51:46,42.805,6.029,CST-1368DR,5880,8225,15076,0.141,551
2020-10-16T09:54:47,42.805,6.029,CST-1368DR,5880,8224,15073,0.142,551
2020-10-16T09:57:49,42.805,6.029,CST-1368DR,5880,8220,15066,0.143,551
2020-10-16T10:00:50,42.805,6.029,CST-1368DR,5880,8225,15076,0.141,551
2020-10-16T10:03:52,42.805,6.029,CST-1368DR,5880,8225,15075,0.141,551
2020-10-16T10:06:54,42.805,6.029,CST-1368DR,5880,8225,15075,0.141,551
2020-10-16T10:09:55,42.805,6.029,CST-1368DR,5880,8224,15073,0.142,551
2020-10-16T10:12:57,42.805,6.029,CST-1368DR,5880,8224,15073,0.142,551
2020-10-16T10:15:58,42.805,6.029,CST-1368DR,5880,8225,15076,0.141,551
2020-10-16T10:19:00,42.805,6.029,CST-1368DR,5880,8225,15074,0.141,551
2020-10-16T10:22:01,42.805,6.029,CST-1368DR,5880,8226,15076,0.141,551
2020-10-16T10:25:03,42.805,6.029,CST-1368DR,5880,8225,15075,0.141,551
2020-10-16T10:28:05,42.805,6.029,CST-1368DR,5880,8225,15074,0.141,551
2020-10-16T10:31:06,42.805,6.029,CST-1368DR,5880,8223,15071,0.142,551
2020-10-16T10:34:08,42.805,6.029,CST-1368DR,5880,8225,15075,0.141,551
2020-10-16T10:37:09,42.805,6.029,CST-1368DR,5880,8225,15076,0.141,551
2020-10-16T10:40:11,42.805,6.029,CST-1368DR,5880,8225,15076,0.141,551
2020-10-16T10:43:13,42.805,6.029,CST-1368DR,5880,8225,15074,0.141,550
2020-10-16T10:46:14,42.805,6.029,CST-1368DR,5880,8225,15075,0.141,551
2020-10-16T10:49:16,42.805,6.029,CST-1368DR,5880,8223,15072,0.142,551
2020-10-16T10:52:17,42.805,6.029,CST-1368DR,5880,8225,15075,0.141,551
2020-10-16T10:55:19,42.805,6.029,CST-1368DR,5880,8224,15073,0.142,551
2020-10-16T10:58:20,42.805,6.029,CST-1368DR,5880,8225,15075,0.141,551
2020-10-16T11:01:22,42.805,6.029,CST-1368DR,5880,8226,15076,0.141,551
2020-10-16T11:04:24,42.805,6.029,CST-1368DR,5880,8223,15072,0.142,551
2020-10-16T11:07:25,42.805,6.029,CST-1368DR,5880,8225,15075,0.141,551
2020-10-16T11:10:27,42.805,6.029,CST-1368DR,5880,8224,15073,0.142,551
2020-10-16T11:13:28,42.805,6.029,CST-1368DR,5880,8225,15075,0.141,550
2020-10-16T11:16:30,42.805,6.029,CST-1368DR,5880,8225,15075,0.141,551
2020-10-16T11:19:31,42.805,6.029,CST-1368DR,5880,8224,15073,0.142,551
2020-10-16T11:22:33,42.805,6.029,CST-1368DR,5880,8225,15075,0.141,551
2020-10-16T11:25:35,42.805,6.029,CST-1368DR,5880,8223,15072,0.142,551
2020-10-16T11:28:36,42.805,6.029,CST-1368DR,5880,8225,15075,0.141,551
2020-10-16T11:31:38,42.805,6.029,CST-1368DR,5880,8225,15075,0.141,551
2020-10-16T11:34:39,42.805,6.029,CST-1368DR,5880,8224,15073,0.142,550
2020-10-16T11:37:41,42.805,6.029,CST-1368DR,5880,8226,15076,0.141,551
2020-10-16T11:40:43,42.805,6.029,CST-1368DR,5880,8225,15075,0.141,551
2020-10-16T11:43:44,42.805,6.029,CST-1368DR,5880,8225,15074,0.141,551
2020-10-16T11:46:46,42.805,6.029,CST-1368DR,5880,8224,15072,0.142,551
2020-10-16T11:49:47,42.805,6.029,CST-1368DR,5880,8225,15074,0.141,551
2020-10-16T11:52:49,42.805,6.029,CST-1368DR,5880,8224,15073,0.142,551
2020-10-16T11:55:50,42.805,6.029,CST-1368DR,5880,8225,15075,0.141,551
2020-10-16T11:58:52,42.805,6.029,CST-1368DR,5880,8225,15076,0.141,551
2020-10-16T12:01:54,42.805,6.029,CST-1368DR,5880,8225,15074,0.141,551
2020-10-16T12:04:55,42.805,6.029,CST-1368DR,5880,8223,15072,0.142,551
2020-10-16T12:07:57,42.805,6.029,CST-1368DR,5880,8224,15073,0.142,550
2020-10-16T12:10:58,42.805,6.029,CST-1368DR,5880,8225,15074,0.141,551
2020-10-16T12:14:00,42.805,6.029,CST-1368DR,5880,8224,15073,0.142,551
2020-10-16T12:17:02,42.805,6.029,CST-1368DR,5880,8224,15073,0.142,551
2020-10-16T12:20:03,42.805,6.029,CST-1368DR,5880,8224,15073,0.142,551
2020-10-16T12:23:05,42.805,6.029,CST-1368DR,5880,8225,15074,0.141,551
2020-10-16T12:26:06,42.805,6.029,CST-1368DR,5880,8225,15075,0.141,551
2020-10-16T12:29:08,42.805,6.029,CST-1368DR,5880,8225,15074,0.141,551
2020-10-16T12:32:09,42.805,6.029,CST-1368DR,5880,8224,15073,0.142,551
2020-10-16T12:35:11,42.805,6.029,CST-1368DR,5880,8225,15074,0.141,551
2020-10-16T12:38:13,42.805,6.029,CST-1368DR,5880,8224,15073,0.142,551
2020-10-16T12:41:14,42.805,6.029,CST-1368DR,5880,8220,15065,0.144,550
2020-10-16T12:44:16,42.805,6.029,CST-1368DR,5880,8224,15073,0.142,551
2020-10-16T12:47:17,42.805,6.029,CST-1368DR,5880,8223,15071,0.142,551
2020-10-16T12:50:19,42.805,6.029,CST-1368DR,5880,8225,15075,0.141,551
2020-10-16T12:53:21,42.805,6.029,CST-1368DR,5880,8223,15071,0.142,551
2020-10-16T12:56:22,42.805,6.029,CST-1368DR,5880,8225,15075,0.141,551
2020-10-16T12:59:24,42.805,6.029,CST-1368DR,5880,8223,15071,0.142,551
2020-10-16T13:02:25,42.805,6.029,CST-1368DR,5880,8224,15073,0.142,551
2020-10-16T13:05:27,42.805,6.029,CST-1368DR,5880,8224,15072,0.142,551
2020-10-16T13:08:28,42.805,6.029,CST-1368DR,5880,8223,15071,0.142,551
2020-10-16T13:11:30,42.805,6.029,CST-1368DR,5880,8225,15074,0.141,551
2020-10-16T13:14:32,42.805,6.029,CST-1368DR,5880,8224,15073,0.142,551
2020-10-16T13:17:33,42.805,6.029,CST-1368DR,5880,8225,15075,0.141,551
2020-10-16T13:20:35,42.805,6.029,CST-1368DR,5880,8225,15075,0.141,551
2020-10-16T13:23:36,42.805,6.029,CST-1368DR,5880,8224,15073,0.142,551
2020-10-16T13:26:38,42.805,6.029,CST-1368DR,5880,8224,15073,0.142,551
2020-10-16T13:29:39,42.805,6.029,CST-1368DR,5880,8224,15073,0.142,551
2020-10-16T13:32:41,42.805,6.029,CST-1368DR,5880,8224,15073,0.142,551
2020-10-16T13:35:43,42.805,6.029,CST-1368DR,5880,8225,15074,0.141,551
2020-10-16T13:38:44,42.805,6.029,CST-1368DR,5880,8223,15070,0.142,551
2020-10-16T13:41:46,42.805,6.029,CST-1368DR,5879,8223,15073,0.142,550
2020-10-16T13:44:47,42.805,6.029,CST-1368DR,5880,8223,15071,0.142,551
2020-10-16T13:47:49,42.805,6.029,CST-1368DR,5880,8223,15071,0.142,551
2020-10-16T13:50:51,42.805,6.029,CST-1368DR,5880,8223,15072,0.142,551
2020-10-16T13:53:52,42.805,6.029,CST-1368DR,5880,8223,15070,0.142,551
2020-10-16T13:56:54,42.805,6.029,CST-1368DR,5879,8223,15073,0.142,551
2020-10-16T13:59:55,42.805,6.029,CST-1368DR,5879,8223,15074,0.141,551
2020-10-16T14:02:57,42.805,6.029,CST-1368DR,5880,8224,15073,0.142,551
2020-10-16T14:05:58,42.805,6.029,CST-1368DR,5879,8224,15075,0.141,551
2020-10-16T14:09:00,42.805,6.029,CST-1368DR,5879,8223,15074,0.141,551
2020-10-16T14:12:02,42.805,6.029,CST-1368DR,5879,8225,15077,0.141,551
2020-10-16T14:15:03,42.805,6.029,CST-1368DR,5880,8223,15072,0.142,551
2020-10-16T14:18:05,42.805,6.029,CST-1368DR,5879,8224,15075,0.141,551
2020-10-16T14:21:06,42.805,6.029,CST-1368DR,5879,8224,15075,0.141,551
2020-10-16T14:24:08,42.805,6.029,CST-1368DR,5879,8224,15075,0.141,551
2020-10-16T14:27:09,42.805,6.029,CST-1368DR,5879,8223,15074,0.141,551
2020-10-16T14:30:11,42.805,6.029,CST-1368DR,5879,8224,15075,0.141,551
2020-10-16T14:33:13,42.805,6.029,CST-1368DR,5879,8224,15075,0.141,551
2020-10-16T14:36:14,42.805,6.029,CST-1368DR,5879,8224,15075,0.141,551
2020-10-16T14:39:16,42.805,6.029,CST-1368DR,5879,8224,15075,0.141,551
2020-10-16T14:42:17,42.805,6.029,CST-1368DR,5880,8223,15071,0.142,551
2020-10-16T14:45:19,42.805,6.029,CST-1368DR,5879,8223,15074,0.141,551
2020-10-16T14:48:21,42.805,6.029,CST-1368DR,5879,8224,15075,0.141,551
2020-10-16T14:51:22,42.805,6.029,CST-1368DR,5879,8223,15073,0.142,551
2020-10-16T14:54:24,42.805,6.029,CST-1368DR,5879,8223,15073,0.142,551
2020-10-16T14:57:25,42.805,6.029,CST-1368DR,5879,8222,15072,0.142,551
2020-10-16T15:00:27,42.805,6.029,CST-1368DR,5879,8224,15075,0.141,551
2020-10-16T15:03:28,42.805,6.029,CST-1368DR,5879,8223,15074,0.141,551
2020-10-16T15:06:30,42.805,6.029,CST-1368DR,5879,8220,15069,0.143,551
2020-10-16T15:09:32,42.805,6.029,CST-1368DR,5879,8222,15072,0.142,551
2020-10-16T15:12:33,42.805,6.029,CST-1368DR,5879,8224,15075,0.141,551
2020-10-16T15:15:35,42.805,6.029,CST-1368DR,5879,8224,15075,0.141,551
2020-10-16T15:18:36,42.805,6.029,CST-1368DR,5879,8223,15073,0.142,551
2020-10-16T15:21:38,42.805,6.029,CST-1368DR,5879,8222,15071,0.142,551
2020-10-16T15:24:39,42.805,6.029,CST-1368DR,5879,8224,15075,0.141,551
2020-10-16T15:27:41,42.805,6.029,CST-1368DR,5879,8223,15074,0.141,551
2020-10-16T15:30:43,42.805,6.029,CST-1368DR,5879,8223,15073,0.142,551
2020-10-16T15:33:44,42.805,6.029,CST-1368DR,5879,8223,15073,0.142,551
2020-10-16T15:36:46,42.805,6.029,CST-1368DR,5879,8223,15074,0.141,551
2020-10-16T15:39:47,42.805,6.029,CST-1368DR,5879,8223,15074,0.141,551
2020-10-16T15:42:49,42.805,6.029,CST-1368DR,5879,8221,15070,0.142,551
2020-10-16T15:45:51,42.805,6.029,CST-1368DR,5879,8223,15074,0.141,551
2020-10-16T15:48:52,42.805,6.029,CST-1368DR,5879,8223,15073,0.142,551
2020-10-16T15:51:54,42.805,6.029,CST-1368DR,5879,8223,15074,0.141,551
2020-10-16T15:54:55,42.805,6.029,CST-1368DR,5879,8221,15069,0.143,551
2020-10-16T15:57:57,42.805,6.029,CST-1368DR,5879,8223,15073,0.142,550
2020-10-16T16:00:58,42.805,6.029,CST-1368DR,5879,8222,15072,0.142,551
2020-10-16T16:04:00,42.805,6.029,CST-1368DR,5879,8222,15072,0.142,551
2020-10-16T16:07:02,42.805,6.029,CST-1368DR,5879,8223,15073,0.142,551
2020-10-16T16:10:03,42.805,6.029,CST-1368DR,5879,8222,15072,0.142,551
2020-10-16T16:13:05,42.805,6.029,CST-1368DR,5879,8223,15074,0.141,551
2020-10-16T16:16:06,42.805,6.029,CST-1368DR,5879,8221,15071,0.142,551
2020-10-16T16:19:08,42.805,6.029,CST-1368DR,5879,8223,15074,0.141,551
2020-10-16T16:22:10,42.805,6.029,CST-1368DR,5879,8223,15074,0.141,551
2020-10-16T16:25:11,42.805,6.029,CST-1368DR,5879,8221,15069,0.143,551
2020-10-16T16:28:13,42.805,6.029,CST-1368DR,5879,8222,15072,0.142,551
2020-10-16T16:31:14,42.805,6.029,CST-1368DR,5879,8222,15072,0.142,551
2020-10-16T16:34:16,42.805,6.029,CST-1368DR,5879,8223,15074,0.141,551
2020-10-16T16:37:17,42.805,6.029,CST-1368DR,5879,8223,15073,0.142,551
2020-10-16T16:40:19,42.805,6.029,CST-1368DR,5879,8222,15072,0.142,551
2020-10-16T16:43:21,42.805,6.029,CST-1368DR,5879,8223,15073,0.142,551
2020-10-16T16:46:22,42.805,6.029,CST-1368DR,5879,8222,15072,0.142,550
2020-10-16T16:49:24,42.805,6.029,CST-1368DR,5879,8222,15071,0.142,551
2020-10-16T16:52:25,42.805,6.029,CST-1368DR,5879,8221,15071,0.142,551